M I D A S
Marine Information and Data Acquisition System
Tripno 312 of the Zeeleeuw from 2002-08-28 07:07:12 to 2002-08-28 10:53:29
Back to CruiseResearch ActivitiesStationsMapUnderway DataData graphs

EquipmentUnitsComments
TimeDGPSUTC
LatitudeDGPSDM.mWGS84
LongitudeDGPSDM.mWGS84
SpeedMeteo Stationm/sRelative wind speed
DirectionMeteo StationdegRelative wind direction
TemperatureMeteo Stationdeg CelciusAir temperature
PressureMeteo StationPaAtmospheric pressure
HumidityMeteo Station%Relative humidity
Missing or incorrect values are displayed as -999
Metereological data collected by the RV Zeeleeuw from 2002-08-28 07:07:12 to 2002-08-28 10:53:29
                                                                                    Next 1000 lines
Time Latitude Longitude Speed Direction Temperature Pressure Humidity
2002-08-28 07:07:21 51°14.576 2°54.814 14.6 218 19.2 101720 85
2002-08-28 07:07:26 51°14.591 2°54.802 14.6 215 19.2 101730 85
2002-08-28 07:07:30 51°14.603 2°54.793 15 214 19.2 101730 85
2002-08-28 07:07:36 51°14.621 2°54.779 13.8 213 19.2 101730 85
2002-08-28 07:07:41 51°14.636 2°54.767 15.2 217 19.2 101730 85
2002-08-28 07:07:46 51°14.652 2°54.756 13.3 216 19.2 101720 85
2002-08-28 07:07:50 51°14.664 2°54.746 15.6 218 19.2 101720 85
2002-08-28 07:07:56 51°14.683 2°54.732 14.9 217 19.3 101720 85
2002-08-28 07:08:01 51°14.699 2°54.72 16.4 216 19.3 101720 85
2002-08-28 07:08:06 51°14.714 2°54.707 15 215 19.3 101720 85
2002-08-28 07:08:10 51°14.726 2°54.697 16.6 217 19.3 101720 85
2002-08-28 07:08:16 51°14.745 2°54.682 16.3 214 19.3 101720 85
2002-08-28 07:08:21 51°14.76 2°54.669 15.4 215 19.3 101720 85
2002-08-28 07:08:26 51°14.776 2°54.657 15.5 213 19.3 101730 85
2002-08-28 07:08:30 51°14.788 2°54.648 15.3 212 19.3 101730 85
2002-08-28 07:08:36 51°14.807 2°54.633 15.3 216 19.3 101730 85
2002-08-28 07:08:41 51°14.823 2°54.62 14.9 213 19.3 101730 85
2002-08-28 07:08:46 51°14.838 2°54.608 16.2 216 19.3 101720 85
2002-08-28 07:08:50 51°14.851 2°54.598 14.9 214 19.3 101720 85
2002-08-28 07:08:56 51°14.87 2°54.582 15.7 215 19.3 101710 85
2002-08-28 07:09:01 51°14.885 2°54.569 15.2 211 19.3 101710 85
2002-08-28 07:09:06 51°14.9 2°54.556 16.1 213 19.3 101720 85
2002-08-28 07:09:11 51°14.916 2°54.543 15.8 217 19.3 101720 85
2002-08-28 07:09:15 51°14.928 2°54.532 15 216 19.2 101710 85
2002-08-28 07:09:21 51°14.947 2°54.516 15.5 214 19.2 101710 85
2002-08-28 07:09:26 51°14.963 2°54.503 15.2 213 19.3 101720 85
2002-08-28 07:09:31 51°14.978 2°54.49 15.2 215 19.3 101720 85
2002-08-28 07:09:36 51°14.994 2°54.477 16.5 214 19.3 101720 86
2002-08-28 07:09:41 51°15.009 2°54.464 15.2 209 19.3 101720 86
2002-08-28 07:09:46 51°15.025 2°54.452 15.3 207 19.3 101720 86
2002-08-28 07:09:51 51°15.04 2°54.439 14.4 214 19.3 101720 86
2002-08-28 07:09:56 51°15.056 2°54.426 17.3 215 19.3 101720 86
2002-08-28 07:10:01 51°15.071 2°54.414 15.6 214 19.3 101720 86
2002-08-28 07:10:06 51°15.087 2°54.402 16.1 213 19.3 101720 86
2002-08-28 07:10:10 51°15.1 2°54.392 15.3 217 19.3 101720 86
2002-08-28 07:10:16 51°15.119 2°54.377 14.5 219 19.3 101720 86
2002-08-28 07:10:21 51°15.134 2°54.364 16.1 214 19.3 101720 86
2002-08-28 07:10:26 51°15.15 2°54.351 15.6 214 19.3 101720 86
2002-08-28 07:10:30 51°15.163 2°54.342 15.8 215 19.3 101720 86
2002-08-28 07:10:36 51°15.182 2°54.326 15.5 215 19.3 101720 86
2002-08-28 07:10:41 51°15.197 2°54.313 15.2 211 19.3 101720 86
2002-08-28 07:10:46 51°15.213 2°54.301 15.5 212 19.3 101720 85
2002-08-28 07:10:51 51°15.229 2°54.288 16.7 216 19.3 101720 85
2002-08-28 07:10:56 51°15.245 2°54.275 15.3 214 19.3 101720 85
2002-08-28 07:11:01 51°15.26 2°54.263 16.2 212 19.3 101720 85
2002-08-28 07:11:06 51°15.276 2°54.25 15.5 215 19.3 101720 86
2002-08-28 07:11:11 51°15.292 2°54.238 16.8 214 19.3 101720 86
2002-08-28 07:11:16 51°15.308 2°54.226 16.2 214 19.2 101730 86
2002-08-28 07:11:21 51°15.324 2°54.213 15.2 216 19.2 101730 86
2002-08-28 07:11:26 51°15.34 2°54.201 16 212 19.2 101720 86
2002-08-28 07:11:30 51°15.353 2°54.191 15.1 215 19.2 101720 86
2002-08-28 07:11:36 51°15.372 2°54.176 15.8 212 19.2 101720 85
2002-08-28 07:11:41 51°15.389 2°54.163 15 212 19.2 101720 85
2002-08-28 07:11:46 51°15.405 2°54.151 15.8 212 19.2 101720 86
2002-08-28 07:11:50 51°15.417 2°54.14 14.3 212 19.2 101720 86
2002-08-28 07:11:56 51°15.437 2°54.125 15.9 212 19.2 101720 86
2002-08-28 07:12:01 51°15.452 2°54.111 16.2 210 19.2 101720 86
2002-08-28 07:12:06 51°15.468 2°54.097 16.2 214 19.2 101720 85
2002-08-28 07:12:10 51°15.481 2°54.086 15 215 19.2 101720 85
2002-08-28 07:12:16 51°15.5 2°54.07 14.3 215 19.2 101720 85
2002-08-28 07:12:21 51°15.516 2°54.056 15.1 212 19.2 101720 85
2002-08-28 07:12:26 51°15.531 2°54.042 14.5 213 19.2 101720 86
2002-08-28 07:12:30 51°15.543 2°54.031 15.7 211 19.2 101720 86
2002-08-28 07:12:36 51°15.562 2°54.015 15.7 208 19.2 101720 86
2002-08-28 07:12:41 51°15.578 2°54 13.7 213 19.2 101720 86
2002-08-28 07:12:46 51°15.593 2°53.987 15.2 212 19.2 101720 85
2002-08-28 07:12:51 51°15.609 2°53.972 15.7 208 19.2 101720 85
2002-08-28 07:12:56 51°15.625 2°53.959 14.8 209 19.2 101740 85
2002-08-28 07:13:01 51°15.641 2°53.945 13.9 205 19.2 101740 85
2002-08-28 07:13:06 51°15.657 2°53.931 13.4 206 19.2 101720 86
2002-08-28 07:13:11 51°15.672 2°53.917 12.7 215 19.2 101720 86
2002-08-28 07:13:16 51°15.687 2°53.903 14.5 211 19.2 101720 85
2002-08-28 07:13:21 51°15.703 2°53.889 14.5 209 19.2 101720 85
2002-08-28 07:13:26 51°15.719 2°53.875 15.3 209 19.2 101720 85
2002-08-28 07:13:31 51°15.734 2°53.861 14.1 212 19.2 101720 85
2002-08-28 07:13:36 51°15.75 2°53.847 15.3 210 19.2 101740 85
2002-08-28 07:13:41 51°15.765 2°53.832 15.2 212 19.2 101740 85
2002-08-28 07:13:46 51°15.78 2°53.818 14.6 212 19.2 101730 86
2002-08-28 07:13:51 51°15.796 2°53.804 15.4 209 19.2 101730 86
2002-08-28 07:13:56 51°15.811 2°53.789 14.7 213 19.2 101730 85
2002-08-28 07:14:01 51°15.826 2°53.775 15.1 213 19.2 101730 85
2002-08-28 07:14:06 51°15.842 2°53.76 15.6 213 19.2 101720 85
2002-08-28 07:14:10 51°15.855 2°53.749 15.5 213 19.2 101720 85
2002-08-28 07:14:16 51°15.873 2°53.732 16.4 215 19.2 101740 86
2002-08-28 07:14:21 51°15.889 2°53.718 15.9 213 19.2 101740 86
2002-08-28 07:14:26 51°15.905 2°53.704 14.5 214 19.2 101720 86
2002-08-28 07:14:29 51°15.914 2°53.696 13.3 219 19.2 101720 86
2002-08-28 07:14:36 51°15.936 2°53.677 16.3 212 19.2 101710 85
2002-08-28 07:14:41 51°15.951 2°53.663 14.6 213 19.2 101710 85
2002-08-28 07:14:46 51°15.967 2°53.649 15.3 213 19.2 101730 85
2002-08-28 07:14:50 51°15.979 2°53.639 16.7 213 19.2 101730 85
2002-08-28 07:14:56 51°15.998 2°53.623 15.4 211 19.2 101740 86
2002-08-28 07:15:01 51°16.013 2°53.609 15 213 19.2 101740 86
2002-08-28 07:15:06 51°16.029 2°53.595 14.4 213 19.2 101720 85
2002-08-28 07:15:10 51°16.041 2°53.585 14.8 213 19.2 101720 85
2002-08-28 07:15:16 51°16.061 2°53.57 14.7 211 19.2 101720 85
2002-08-28 07:15:21 51°16.076 2°53.556 14.9 210 19.2 101720 85
2002-08-28 07:15:26 51°16.092 2°53.543 15.5 215 19.2 101730 86
2002-08-28 07:15:31 51°16.108 2°53.529 16.8 213 19.2 101730 86
2002-08-28 07:15:36 51°16.124 2°53.515 14.9 212 19.2 101740 86
2002-08-28 07:15:41 51°16.14 2°53.502 16 210 19.2 101740 86
2002-08-28 07:15:46 51°16.156 2°53.488 15.3 212 19.2 101720 86
2002-08-28 07:15:50 51°16.169 2°53.477 16.4 211 19.2 101720 86
2002-08-28 07:15:56 51°16.188 2°53.461 15.1 210 19.2 101720 85
2002-08-28 07:16:01 51°16.203 2°53.448 13.9 213 19.2 101720 85
2002-08-28 07:16:06 51°16.219 2°53.434 15.9 208 19.2 101720 85
2002-08-28 07:16:11 51°16.235 2°53.421 13.8 212 19.2 101720 85
2002-08-28 07:16:16 51°16.25 2°53.408 14.5 208 19.2 101730 85
2002-08-28 07:16:21 51°16.266 2°53.394 15.5 208 19.2 101730 85
2002-08-28 07:16:26 51°16.281 2°53.38 15.7 208 19.2 101720 85
2002-08-28 07:16:30 51°16.294 2°53.369 15.2 211 19.2 101720 85
2002-08-28 07:16:36 51°16.313 2°53.353 14.6 220 19.2 101730 86
2002-08-28 07:16:41 51°16.329 2°53.34 15.6 212 19.2 101730 86
2002-08-28 07:16:46 51°16.345 2°53.327 15.2 210 19.2 101730 85
2002-08-28 07:16:51 51°16.36 2°53.313 16 207 19.2 101730 85
2002-08-28 07:16:56 51°16.376 2°53.3 15.4 211 19.2 101730 86
2002-08-28 07:17:01 51°16.392 2°53.286 13.9 217 19.2 101730 86
2002-08-28 07:17:06 51°16.407 2°53.272 14.7 213 19.2 101740 86
2002-08-28 07:17:11 51°16.423 2°53.259 16.5 212 19.2 101740 86
2002-08-28 07:17:16 51°16.439 2°53.245 15.5 211 19.2 101720 85
2002-08-28 07:17:21 51°16.455 2°53.232 15.4 212 19.2 101720 85
2002-08-28 07:17:26 51°16.471 2°53.219 14.7 212 19.2 101740 85
2002-08-28 07:17:31 51°16.487 2°53.206 16.6 216 19.2 101740 85
2002-08-28 07:17:36 51°16.503 2°53.193 15.8 214 19.2 101720 85
2002-08-28 07:17:41 51°16.518 2°53.179 16.4 214 19.2 101720 85
2002-08-28 07:17:46 51°16.534 2°53.165 15.3 210 19.2 101730 85
2002-08-28 07:17:51 51°16.55 2°53.151 15.5 215 19.2 101730 85
2002-08-28 07:17:56 51°16.566 2°53.137 15.3 214 19.2 101730 85
2002-08-28 07:18:01 51°16.582 2°53.123 15.6 210 19.2 101730 85
2002-08-28 07:18:06 51°16.598 2°53.11 15 215 19.1 101730 85
2002-08-28 07:18:10 51°16.61 2°53.099 15.6 213 19.1 101730 85
2002-08-28 07:18:16 51°16.629 2°53.083 15.1 210 19.2 101730 85
2002-08-28 07:18:21 51°16.645 2°53.07 15.6 215 19.2 101730 85
2002-08-28 07:18:26 51°16.661 2°53.056 15.6 211 19.2 101720 85
2002-08-28 07:18:30 51°16.673 2°53.045 15 211 19.2 101720 85
2002-08-28 07:18:36 51°16.692 2°53.028 14.9 214 19.1 101730 85
2002-08-28 07:18:41 51°16.707 2°53.014 15.9 212 19.1 101730 85
2002-08-28 07:18:46 51°16.722 2°53 17.4 214 19.2 101730 86
2002-08-28 07:18:50 51°16.734 2°52.989 14.6 214 19.2 101730 86
2002-08-28 07:18:56 51°16.753 2°52.971 15.7 208 19.2 101740 86
2002-08-28 07:19:01 51°16.768 2°52.957 17.7 210 19.2 101740 86
2002-08-28 07:19:06 51°16.783 2°52.942 17 210 19.2 101720 85
2002-08-28 07:19:10 51°16.796 2°52.931 15.4 213 19.2 101720 85
2002-08-28 07:19:16 51°16.814 2°52.914 15.3 212 19.2 101720 85
2002-08-28 07:19:21 51°16.829 2°52.899 15.1 205 19.2 101720 85
2002-08-28 07:19:26 51°16.845 2°52.884 16.6 208 19.2 101730 85
2002-08-28 07:19:31 51°16.86 2°52.87 14.5 211 19.2 101730 85
2002-08-28 07:19:36 51°16.875 2°52.856 16.1 213 19.1 101730 85
2002-08-28 07:19:41 51°16.891 2°52.841 16.7 207 19.1 101730 85
2002-08-28 07:19:46 51°16.906 2°52.827 15.7 207 19.1 101730 85
2002-08-28 07:19:50 51°16.919 2°52.815 15.3 211 19.1 101730 85
2002-08-28 07:19:55 51°16.934 2°52.801 14.7 210 19.1 101730 85
2002-08-28 07:20:01 51°16.953 2°52.784 16.1 209 19.1 101730 85
2002-08-28 07:20:06 51°16.968 2°52.768 16 208 19.1 101740 85
2002-08-28 07:20:10 51°16.981 2°52.757 17.1 210 19.1 101740 85
2002-08-28 07:20:16 51°17 2°52.739 15.8 210 19.1 101730 85
2002-08-28 07:20:21 51°17.016 2°52.725 14.6 208 19.1 101730 85
2002-08-28 07:20:26 51°17.031 2°52.71 15.3 210 19.1 101740 85
2002-08-28 07:20:31 51°17.047 2°52.697 16 216 19.1 101740 85
2002-08-28 07:20:36 51°17.063 2°52.683 15.9 211 19.1 101730 85
2002-08-28 07:20:41 51°17.079 2°52.671 16.1 215 19.1 101730 85
2002-08-28 07:20:46 51°17.095 2°52.659 14 212 19.2 101740 85
2002-08-28 07:20:50 51°17.108 2°52.649 14.8 214 19.2 101740 85
2002-08-28 07:20:54 51°17.121 2°52.641 13.9 217 19.2 101730 86
2002-08-28 07:21:01 51°17.144 2°52.625 15.6 219 19.2 101730 86
2002-08-28 07:21:06 51°17.161 2°52.614 17.1 215 19.2 101730 85
2002-08-28 07:21:10 51°17.174 2°52.605 17.5 219 19.2 101730 85
2002-08-28 07:21:16 51°17.194 2°52.592 15.4 217 19.2 101740 86
2002-08-28 07:21:21 51°17.211 2°52.583 15.6 222 19.2 101740 86
2002-08-28 07:21:26 51°17.228 2°52.573 17 218 19.2 101740 86
2002-08-28 07:21:30 51°17.241 2°52.567 16.4 224 19.2 101740 86
2002-08-28 07:21:36 51°17.262 2°52.56 15.9 224 19.2 101740 85
2002-08-28 07:21:41 51°17.28 2°52.555 16.1 225 19.2 101740 85
2002-08-28 07:21:46 51°17.297 2°52.551 15.4 224 19.2 101740 85
2002-08-28 07:21:50 51°17.311 2°52.549 16.7 225 19.2 101740 85
2002-08-28 07:21:56 51°17.333 2°52.547 16.3 225 19.2 101730 85
2002-08-28 07:22:01 51°17.351 2°52.545 18.3 228 19.2 101730 85
2002-08-28 07:22:06 51°17.369 2°52.546 18 229 19.1 101740 85
2002-08-28 07:22:10 51°17.383 2°52.545 17.4 226 19.1 101740 85
2002-08-28 07:22:16 51°17.405 2°52.545 17.4 228 19.2 101740 86
2002-08-28 07:22:21 51°17.423 2°52.545 16.3 226 19.2 101740 86
2002-08-28 07:22:26 51°17.442 2°52.545 17.2 224 19.2 101740 86
2002-08-28 07:22:31 51°17.46 2°52.544 18.1 227 19.2 101740 86
2002-08-28 07:22:36 51°17.479 2°52.544 18.5 226 19.2 101740 85
2002-08-28 07:22:41 51°17.498 2°52.544 17.5 225 19.2 101740 85
2002-08-28 07:22:46 51°17.516 2°52.543 17.2 224 19.1 101740 85
2002-08-28 07:22:51 51°17.535 2°52.543 16.8 226 19.1 101740 85
2002-08-28 07:22:56 51°17.553 2°52.542 15.7 224 19.1 101730 85
2002-08-28 07:23:01 51°17.572 2°52.543 17.6 228 19.1 101730 85
2002-08-28 07:23:06 51°17.591 2°52.542 17.3 225 19.2 101740 86
2002-08-28 07:23:11 51°17.61 2°52.542 17.7 227 19.2 101740 86
2002-08-28 07:23:16 51°17.629 2°52.541 16.3 225 19.2 101740 86
2002-08-28 07:23:21 51°17.648 2°52.541 17.8 226 19.2 101740 86
2002-08-28 07:23:26 51°17.666 2°52.541 16.7 228 19.1 101740 85
2002-08-28 07:23:31 51°17.685 2°52.54 14.8 231 19.1 101740 85
2002-08-28 07:23:36 51°17.704 2°52.539 17.1 230 19.1 101730 85
2002-08-28 07:23:41 51°17.723 2°52.539 16.3 229 19.1 101730 85
2002-08-28 07:23:46 51°17.741 2°52.538 15.7 228 19.1 101750 85
2002-08-28 07:23:50 51°17.756 2°52.536 17 227 19.1 101750 85
2002-08-28 07:23:56 51°17.779 2°52.535 17.9 229 19.1 101730 85
2002-08-28 07:24:01 51°17.797 2°52.534 15.7 228 19.1 101730 85
2002-08-28 07:24:06 51°17.816 2°52.533 16.2 228 19.1 101730 85
2002-08-28 07:24:10 51°17.831 2°52.532 16.2 230 19.1 101730 85
2002-08-28 07:24:16 51°17.854 2°52.53 16.8 233 19.1 101750 85
2002-08-28 07:24:21 51°17.873 2°52.53 16.3 229 19.1 101750 85
2002-08-28 07:24:26 51°17.892 2°52.528 17.9 229 19.1 101740 85
2002-08-28 07:24:31 51°17.91 2°52.527 16.2 234 19.1 101740 85
2002-08-28 07:24:36 51°17.929 2°52.525 17.7 231 19.1 101740 86
2002-08-28 07:24:41 51°17.948 2°52.524 18.8 225 19.1 101740 86
2002-08-28 07:24:46 51°17.967 2°52.523 16.5 225 19.2 101740 86
2002-08-28 07:24:50 51°17.982 2°52.521 16.5 225 19.2 101740 86
2002-08-28 07:24:56 51°18.005 2°52.52 17.8 227 19.2 101730 86
2002-08-28 07:25:01 51°18.024 2°52.518 16.2 226 19.2 101730 86
2002-08-28 07:25:06 51°18.043 2°52.517 17.4 225 19.2 101730 86
2002-08-28 07:25:10 51°18.058 2°52.515 16 227 19.2 101730 86
2002-08-28 07:25:16 51°18.08 2°52.513 15.7 225 19.2 101740 86
2002-08-28 07:25:21 51°18.099 2°52.511 17.1 225 19.2 101740 86
2002-08-28 07:25:26 51°18.118 2°52.509 17.3 228 19.2 101740 86
2002-08-28 07:25:31 51°18.137 2°52.507 18.2 227 19.2 101740 86
2002-08-28 07:25:36 51°18.156 2°52.506 17 225 19.2 101740 86
2002-08-28 07:25:41 51°18.174 2°52.503 16.6 225 19.2 101740 86
2002-08-28 07:25:46 51°18.193 2°52.502 16.8 226 19.2 101740 86
2002-08-28 07:25:51 51°18.212 2°52.5 16.7 230 19.2 101740 86
2002-08-28 07:25:56 51°18.231 2°52.498 18 230 19.2 101730 86
2002-08-28 07:26:01 51°18.25 2°52.497 18.4 226 19.2 101730 86
2002-08-28 07:26:06 51°18.269 2°52.495 16.8 228 19.1 101750 85
2002-08-28 07:26:11 51°18.288 2°52.493 17.4 225 19.1 101750 85
2002-08-28 07:26:16 51°18.307 2°52.492 17.3 227 19.1 101740 85
2002-08-28 07:26:21 51°18.326 2°52.491 18 230 19.1 101740 85
2002-08-28 07:26:26 51°18.344 2°52.495 16.2 231 19.1 101740 85
2002-08-28 07:26:30 51°18.359 2°52.498 17.9 235 19.1 101740 85
2002-08-28 07:26:36 51°18.38 2°52.508 18 241 19.1 101740 85
2002-08-28 07:26:41 51°18.397 2°52.518 18.1 245 19.1 101740 85
2002-08-28 07:26:46 51°18.413 2°52.532 16.7 244 19.1 101750 85
2002-08-28 07:26:51 51°18.429 2°52.546 16.5 246 19.1 101750 85
2002-08-28 07:26:56 51°18.443 2°52.564 16.7 250 19.1 101740 85
2002-08-28 07:27:01 51°18.456 2°52.583 17.4 252 19.1 101740 85
2002-08-28 07:27:06 51°18.468 2°52.605 16.1 253 19.1 101750 85
2002-08-28 07:27:09 51°18.474 2°52.618 17.3 261 19.1 101750 85
2002-08-28 07:27:16 51°18.489 2°52.65 15.9 264 19.1 101740 86
2002-08-28 07:27:21 51°18.498 2°52.674 15.8 263 19.1 101740 86
2002-08-28 07:27:26 51°18.507 2°52.699 16.1 261 19.1 101740 86
2002-08-28 07:27:30 51°18.513 2°52.72 16.4 265 19.1 101740 86
2002-08-28 07:27:34 51°18.519 2°52.74 16.6 266 19.2 101740 86
2002-08-28 07:27:40 51°18.527 2°52.772 14.9 266 19.2 101740 86
2002-08-28 07:27:46 51°18.534 2°52.804 14.4 266 19.2 101740 86
2002-08-28 07:27:50 51°18.539 2°52.826 16.2 270 19.2 101740 86
2002-08-28 07:27:54 51°18.544 2°52.848 16.4 270 19.2 101730 86
2002-08-28 07:28:00 51°18.551 2°52.88 16.7 266 19.2 101730 86
2002-08-28 07:28:05 51°18.556 2°52.908 16.1 266 19.2 101730 86
2002-08-28 07:28:11 51°18.563 2°52.941 15.7 269 19.2 101730 86
2002-08-28 07:28:16 51°18.568 2°52.969 15.8 266 19.1 101740 86
2002-08-28 07:28:21 51°18.573 2°52.995 15.7 269 19.1 101740 86
2002-08-28 07:28:26 51°18.578 2°53.023 16.4 271 19.1 101720 85
2002-08-28 07:28:30 51°18.583 2°53.045 16.1 270 19.1 101720 85
2002-08-28 07:28:36 51°18.589 2°53.079 15.7 271 19.1 101720 85
2002-08-28 07:28:41 51°18.595 2°53.107 15.3 265 19.1 101720 85
2002-08-28 07:28:46 51°18.6 2°53.135 15 266 19.1 101730 85
2002-08-28 07:28:51 51°18.606 2°53.162 13.8 266 19.1 101730 85
2002-08-28 07:28:56 51°18.61 2°53.19 15.3 267 19.1 101740 86
2002-08-28 07:29:00 51°18.615 2°53.212 15 270 19.1 101740 86
2002-08-28 07:29:05 51°18.62 2°53.24 14.7 267 19.1 101740 86
2002-08-28 07:29:10 51°18.625 2°53.268 15.9 269 19.1 101740 86
2002-08-28 07:29:14 51°18.629 2°53.291 16.4 274 19.1 101730 86
2002-08-28 07:29:21 51°18.636 2°53.329 16.3 267 19.1 101730 86
2002-08-28 07:29:26 51°18.642 2°53.357 16.2 270 19.1 101720 86
2002-08-28 07:29:31 51°18.647 2°53.385 16.4 270 19.1 101720 86
2002-08-28 07:29:35 51°18.65 2°53.408 16.4 272 19.1 101740 86
2002-08-28 07:29:41 51°18.656 2°53.442 15.3 271 19.1 101740 86
2002-08-28 07:29:45 51°18.66 2°53.464 15.3 270 19.2 101740 86
2002-08-28 07:29:50 51°18.665 2°53.493 14.7 271 19.2 101740 86
2002-08-28 07:29:56 51°18.671 2°53.526 15.6 267 19.2 101740 86
2002-08-28 07:30:01 51°18.676 2°53.554 14.2 268 19.2 101740 86
2002-08-28 07:30:06 51°18.681 2°53.582 15 270 19.1 101740 86
2002-08-28 07:30:10 51°18.686 2°53.604 15.9 274 19.1 101740 86
2002-08-28 07:30:16 51°18.692 2°53.638 15.9 275 19.2 101730 86
2002-08-28 07:30:21 51°18.697 2°53.666 15.3 276 19.2 101730 86
2002-08-28 07:30:26 51°18.702 2°53.694 14.1 270 19.1 101740 86
2002-08-28 07:30:30 51°18.705 2°53.717 14.8 270 19.1 101740 86
2002-08-28 07:30:36 51°18.712 2°53.75 14.1 274 19.1 101730 86
2002-08-28 07:30:41 51°18.717 2°53.778 15.3 273 19.1 101730 86
2002-08-28 07:30:45 51°18.721 2°53.8 14.1 266 19.2 101730 86
2002-08-28 07:30:50 51°18.726 2°53.828 14.4 266 19.2 101730 86
2002-08-28 07:30:54 51°18.73 2°53.851 14.8 268 19.2 101750 86
2002-08-28 07:31:01 51°18.736 2°53.89 14 269 19.2 101750 86
2002-08-28 07:31:05 51°18.74 2°53.913 14.2 264 19.2 101740 86
2002-08-28 07:31:10 51°18.745 2°53.941 15.5 265 19.2 101740 86
2002-08-28 07:31:16 51°18.751 2°53.975 14.6 264 19.2 101750 86
2002-08-28 07:31:20 51°18.755 2°53.997 15.4 267 19.2 101750 86
2002-08-28 07:31:25 51°18.76 2°54.024 16.1 269 19.2 101740 86
2002-08-28 07:31:30 51°18.764 2°54.053 15.8 270 19.2 101740 86
2002-08-28 07:31:36 51°18.771 2°54.086 15.3 272 19.2 101740 86
2002-08-28 07:31:41 51°18.776 2°54.115 15 269 19.2 101740 86
2002-08-28 07:31:46 51°18.781 2°54.143 15.8 270 19.2 101740 86
2002-08-28 07:31:50 51°18.784 2°54.165 16.4 266 19.2 101740 86
2002-08-28 07:31:54 51°18.788 2°54.188 16.4 269 19.2 101740 86
2002-08-28 07:32:00 51°18.795 2°54.222 16.1 271 19.2 101740 86
2002-08-28 07:32:06 51°18.8 2°54.255 15.8 272 19.2 101740 86
2002-08-28 07:32:10 51°18.804 2°54.277 14.3 271 19.2 101740 86
2002-08-28 07:32:15 51°18.81 2°54.306 14.6 268 19.2 101750 86
2002-08-28 07:32:21 51°18.815 2°54.339 16.3 269 19.2 101750 86
2002-08-28 07:32:25 51°18.819 2°54.362 15.6 269 19.1 101730 86
2002-08-28 07:32:30 51°18.824 2°54.39 15 270 19.1 101730 86
2002-08-28 07:32:34 51°18.827 2°54.413 14.8 268 19.1 101740 86
2002-08-28 07:32:41 51°18.834 2°54.452 14.8 268 19.1 101740 86
2002-08-28 07:32:45 51°18.837 2°54.474 16.7 269 19.1 101740 86
2002-08-28 07:32:50 51°18.843 2°54.502 15.1 273 19.1 101740 86
2002-08-28 07:32:56 51°18.849 2°54.536 14.2 268 19.1 101740 86
2002-08-28 07:33:01 51°18.853 2°54.564 15 270 19.1 101740 86
2002-08-28 07:33:05 51°18.857 2°54.586 14.3 266 19.1 101730 86
2002-08-28 07:33:10 51°18.862 2°54.614 15 267 19.1 101730 86
2002-08-28 07:33:14 51°18.866 2°54.636 15.4 267 19.1 101730 86
2002-08-28 07:33:21 51°18.873 2°54.675 13.9 270 19.1 101730 86
2002-08-28 07:33:25 51°18.876 2°54.698 15.4 265 19.1 101750 86
2002-08-28 07:33:29 51°18.881 2°54.72 14.9 267 19.1 101750 86
2002-08-28 07:33:36 51°18.888 2°54.759 14.8 262 19.2 101730 86
2002-08-28 07:33:40 51°18.892 2°54.781 14.8 263 19.2 101730 86
2002-08-28 07:33:46 51°18.897 2°54.815 15.6 262 19.2 101750 86
2002-08-28 07:33:50 51°18.901 2°54.837 15 269 19.2 101750 86
2002-08-28 07:33:56 51°18.906 2°54.871 14.6 266 19.2 101740 86
2002-08-28 07:34:01 51°18.912 2°54.898 15 269 19.2 101740 86
2002-08-28 07:34:06 51°18.915 2°54.927 15.1 268 19.2 101740 86
2002-08-28 07:34:10 51°18.92 2°54.949 14.9 267 19.2 101740 86
2002-08-28 07:34:14 51°18.924 2°54.971 14.5 265 19.2 101740 86
2002-08-28 07:34:20 51°18.93 2°55.004 15.5 268 19.2 101740 86
2002-08-28 07:34:26 51°18.935 2°55.038 15.4 266 19.1 101730 86
2002-08-28 07:34:31 51°18.941 2°55.066 15 267 19.1 101730 86
2002-08-28 07:34:36 51°18.944 2°55.094 15.5 265 19.1 101730 85
2002-08-28 07:34:41 51°18.95 2°55.122 15.6 267 19.1 101730 85
2002-08-28 07:34:45 51°18.953 2°55.144 15.9 271 19.1 101740 86
2002-08-28 07:34:50 51°18.958 2°55.172 13.5 264 19.1 101740 86
2002-08-28 07:34:56 51°18.963 2°55.206 15 268 19.1 101730 86
2002-08-28 07:35:01 51°18.969 2°55.233 15.5 266 19.1 101730 86
2002-08-28 07:35:05 51°18.972 2°55.256 15.5 272 19.1 101730 86
2002-08-28 07:35:10 51°18.978 2°55.283 14.9 271 19.1 101730 86
2002-08-28 07:35:16 51°18.983 2°55.317 15.1 269 19.2 101750 86
2002-08-28 07:35:21 51°18.988 2°55.344 16 266 19.2 101750 86
2002-08-28 07:35:25 51°18.991 2°55.367 16.9 268 19.2 101730 86
2002-08-28 07:35:30 51°18.997 2°55.395 14.1 265 19.2 101730 86
2002-08-28 07:35:36 51°19.003 2°55.428 15.1 268 19.2 101740 86
2002-08-28 07:35:41 51°19.008 2°55.456 16 272 19.2 101740 86
2002-08-28 07:35:46 51°19.012 2°55.485 15.7 265 19.2 101730 86
2002-08-28 07:35:50 51°19.016 2°55.507 15.8 273 19.2 101730 86
2002-08-28 07:35:56 51°19.022 2°55.54 15.4 272 19.2 101750 86
2002-08-28 07:36:01 51°19.027 2°55.568 14.7 270 19.2 101750 86
2002-08-28 07:36:05 51°19.031 2°55.59 14.7 270 19.2 101740 86
2002-08-28 07:36:09 51°19.035 2°55.613 15.3 261 19.2 101740 86
2002-08-28 07:36:14 51°19.04 2°55.64 15.1 266 19.2 101740 86
2002-08-28 07:36:20 51°19.045 2°55.674 15.9 268 19.2 101740 86
2002-08-28 07:36:26 51°19.051 2°55.707 16.1 265 19.2 101750 86
2002-08-28 07:36:30 51°19.055 2°55.73 17.3 268 19.2 101750 86
2002-08-28 07:36:34 51°19.06 2°55.752 16.5 266 19.2 101740 86
2002-08-28 07:36:40 51°19.065 2°55.785 16.5 271 19.2 101740 86
2002-08-28 07:36:46 51°19.071 2°55.818 16.2 271 19.2 101740 86
2002-08-28 07:36:50 51°19.074 2°55.841 15.6 273 19.2 101740 86
2002-08-28 07:36:56 51°19.08 2°55.874 14.7 274 19.2 101730 86
2002-08-28 07:37:01 51°19.085 2°55.902 15.7 276 19.2 101730 86
2002-08-28 07:37:06 51°19.09 2°55.929 15.2 276 19.2 101740 86
2002-08-28 07:37:10 51°19.093 2°55.952 15.3 269 19.2 101740 86
2002-08-28 07:37:14 51°19.097 2°55.974 15.5 265 19.2 101740 86
2002-08-28 07:37:21 51°19.104 2°56.013 14.9 269 19.2 101740 86
2002-08-28 07:37:25 51°19.107 2°56.035 14.6 263 19.2 101740 86
2002-08-28 07:37:30 51°19.113 2°56.062 15.3 268 19.2 101740 86
2002-08-28 07:37:36 51°19.118 2°56.096 15.6 271 19.2 101750 86
2002-08-28 07:37:40 51°19.123 2°56.118 13.5 268 19.2 101750 86
2002-08-28 07:37:45 51°19.127 2°56.146 13.3 265 19.2 101740 86
2002-08-28 07:37:50 51°19.132 2°56.174 13.2 267 19.2 101740 86
2002-08-28 07:37:55 51°19.137 2°56.202 13.8 262 19.1 101750 86
2002-08-28 07:38:00 51°19.143 2°56.229 13.5 265 19.1 101750 86
2002-08-28 07:38:06 51°19.147 2°56.263 14.4 264 19.1 101740 86
2002-08-28 07:38:11 51°19.153 2°56.291 14.3 267 19.1 101740 86
2002-08-28 07:38:15 51°19.156 2°56.313 16.5 268 19.2 101740 86
2002-08-28 07:38:20 51°19.162 2°56.341 13.5 266 19.2 101740 86
2002-08-28 07:38:25 51°19.165 2°56.369 13.9 260 19.2 101750 86
2002-08-28 07:38:30 51°19.172 2°56.396 13.5 262 19.2 101750 86
2002-08-28 07:38:36 51°19.176 2°56.43 15.4 264 19.2 101740 86
2002-08-28 07:38:41 51°19.182 2°56.457 14.8 267 19.2 101740 86
2002-08-28 07:38:46 51°19.186 2°56.486 16 266 19.2 101730 86
2002-08-28 07:38:50 51°19.191 2°56.507 15.5 267 19.2 101730 86
2002-08-28 07:38:54 51°19.194 2°56.53 15.5 271 19.2 101740 86
2002-08-28 07:39:01 51°19.202 2°56.569 15.3 270 19.2 101740 86
2002-08-28 07:39:05 51°19.206 2°56.591 15.7 274 19.2 101750 86
2002-08-28 07:39:10 51°19.212 2°56.618 14.4 261 19.2 101750 86
2002-08-28 07:39:16 51°19.219 2°56.651 16.3 269 19.2 101750 86
2002-08-28 07:39:21 51°19.226 2°56.678 15.1 268 19.2 101750 86
2002-08-28 07:39:25 51°19.231 2°56.699 15.1 265 19.2 101740 86
2002-08-28 07:39:30 51°19.239 2°56.726 14.9 266 19.2 101740 86
2002-08-28 07:39:34 51°19.244 2°56.747 16.5 267 19.2 101740 86
2002-08-28 07:39:41 51°19.254 2°56.785 15.1 262 19.2 101740 86
2002-08-28 07:39:45 51°19.259 2°56.806 15.7 265 19.2 101750 86
2002-08-28 07:39:50 51°19.266 2°56.832 16.3 268 19.2 101750 86
2002-08-28 07:39:56 51°19.274 2°56.865 15.1 265 19.2 101750 86
2002-08-28 07:40:01 51°19.281 2°56.892 14 267 19.2 101750 86
2002-08-28 07:40:05 51°19.285 2°56.913 15 270 19.2 101750 86
2002-08-28 07:40:10 51°19.293 2°56.939 15 263 19.2 101750 86
2002-08-28 07:40:15 51°19.299 2°56.967 15.6 264 19.2 101750 86
2002-08-28 07:40:21 51°19.308 2°56.998 15.7 264 19.2 101750 86
2002-08-28 07:40:26 51°19.314 2°57.026 15.7 268 19.2 101740 86
2002-08-28 07:40:31 51°19.321 2°57.052 13.6 263 19.2 101740 86
2002-08-28 07:40:35 51°19.325 2°57.074 13.9 265 19.2 101740 86
2002-08-28 07:40:40 51°19.332 2°57.1 15.4 268 19.2 101740 86
2002-08-28 07:40:46 51°19.34 2°57.133 14.8 266 19.2 101750 86
2002-08-28 07:40:50 51°19.346 2°57.154 15.9 266 19.2 101750 86
2002-08-28 07:40:55 51°19.352 2°57.181 16.4 268 19.2 101750 86
2002-08-28 07:41:01 51°19.361 2°57.213 14.4 268 19.2 101750 86
2002-08-28 07:41:06 51°19.367 2°57.24 15.9 268 19.2 101750 86
2002-08-28 07:41:11 51°19.374 2°57.267 15 268 19.2 101750 86
2002-08-28 07:41:15 51°19.379 2°57.289 14.4 265 19.2 101750 86
2002-08-28 07:41:20 51°19.386 2°57.316 15.3 271 19.2 101750 86
2002-08-28 07:41:25 51°19.393 2°57.342 15.1 268 19.2 101750 86
2002-08-28 07:41:30 51°19.399 2°57.369 15.1 269 19.2 101750 86
2002-08-28 07:41:36 51°19.407 2°57.401 14.9 266 19.2 101760 86
2002-08-28 07:41:41 51°19.413 2°57.428 15.3 266 19.2 101760 86
2002-08-28 07:41:46 51°19.421 2°57.454 14.3 263 19.2 101760 86
2002-08-28 07:41:50 51°19.426 2°57.476 16 265 19.2 101760 86
2002-08-28 07:41:54 51°19.431 2°57.497 15.8 266 19.2 101740 86
2002-08-28 07:42:01 51°19.44 2°57.535 16.6 267 19.2 101740 86
2002-08-28 07:42:05 51°19.446 2°57.556 16.5 267 19.2 101750 86
2002-08-28 07:42:10 51°19.452 2°57.583 15.9 270 19.2 101750 86
2002-08-28 07:42:16 51°19.461 2°57.615 16 270 19.2 101740 86
2002-08-28 07:42:20 51°19.465 2°57.636 15.9 267 19.2 101740 86
2002-08-28 07:42:25 51°19.472 2°57.663 15.8 270 19.2 101750 86
2002-08-28 07:42:30 51°19.478 2°57.69 16.6 269 19.2 101750 86
2002-08-28 07:42:34 51°19.483 2°57.711 14 264 19.1 101750 86
2002-08-28 07:42:41 51°19.491 2°57.749 14.1 267 19.1 101750 86
2002-08-28 07:42:45 51°19.496 2°57.771 13.2 266 19.1 101760 86
2002-08-28 07:42:50 51°19.503 2°57.797 14.4 269 19.1 101760 86
2002-08-28 07:42:54 51°19.508 2°57.819 14.3 264 19.2 101740 86
2002-08-28 07:43:01 51°19.517 2°57.856 16.3 268 19.2 101740 86
2002-08-28 07:43:05 51°19.523 2°57.877 14.1 264 19.1 101770 86
2002-08-28 07:43:10 51°19.529 2°57.904 15.2 267 19.1 101770 86
2002-08-28 07:43:16 51°19.537 2°57.937 16.2 264 19.2 101760 86
2002-08-28 07:43:21 51°19.544 2°57.963 15.4 269 19.2 101760 86
2002-08-28 07:43:26 51°19.551 2°57.99 16.2 268 19.2 101750 86
2002-08-28 07:43:30 51°19.556 2°58.011 15.6 271 19.2 101750 86
2002-08-28 07:43:35 51°19.563 2°58.038 14.2 263 19.2 101760 86
2002-08-28 07:43:40 51°19.569 2°58.065 16.4 262 19.2 101760 86
2002-08-28 07:43:46 51°19.578 2°58.096 15.8 262 19.2 101750 86
2002-08-28 07:43:51 51°19.584 2°58.123 14.7 260 19.2 101750 86
2002-08-28 07:43:55 51°19.59 2°58.144 15.7 263 19.2 101750 86
2002-08-28 07:44:01 51°19.598 2°58.176 14.2 263 19.2 101750 86
2002-08-28 07:44:05 51°19.603 2°58.198 15.9 260 19.2 101760 86
2002-08-28 07:44:10 51°19.61 2°58.225 15 267 19.2 101760 86
2002-08-28 07:44:15 51°19.616 2°58.251 14.8 263 19.1 101750 86
2002-08-28 07:44:20 51°19.623 2°58.278 15.1 264 19.1 101750 86
2002-08-28 07:44:26 51°19.63 2°58.311 14.5 263 19.1 101760 86
2002-08-28 07:44:30 51°19.636 2°58.332 15.5 261 19.1 101760 86
2002-08-28 07:44:34 51°19.641 2°58.354 15.2 266 19.1 101760 86
2002-08-28 07:44:37 51°19.644 2°58.37 15.1 259 19.1 101760 86
2002-08-28 07:44:45 51°19.654 2°58.413 16.7 264 19.1 101750 86
2002-08-28 07:44:50 51°19.662 2°58.439 15.2 264 19.1 101750 86
2002-08-28 07:44:56 51°19.668 2°58.472 15.4 263 19.1 101750 86
2002-08-28 07:45:01 51°19.675 2°58.498 15.5 267 19.1 101750 86
2002-08-28 07:45:06 51°19.682 2°58.525 15.8 267 19.1 101750 86
2002-08-28 07:45:10 51°19.687 2°58.547 15.9 264 19.1 101750 86
2002-08-28 07:45:14 51°19.692 2°58.569 14.5 267 19.1 101760 86
2002-08-28 07:45:20 51°19.699 2°58.601 15.9 267 19.1 101760 86
2002-08-28 07:45:25 51°19.706 2°58.627 15.5 264 19.1 101750 86
2002-08-28 07:45:30 51°19.712 2°58.655 15.8 268 19.1 101750 86
2002-08-28 07:45:36 51°19.72 2°58.687 14.2 267 19.1 101760 86
2002-08-28 07:45:40 51°19.725 2°58.708 14.5 270 19.1 101760 86
2002-08-28 07:45:46 51°19.733 2°58.74 14.2 268 19.1 101770 86
2002-08-28 07:45:50 51°19.738 2°58.761 15.3 270 19.1 101770 86
2002-08-28 07:45:54 51°19.743 2°58.783 16.2 271 19.1 101770 86
2002-08-28 07:46:01 51°19.752 2°58.82 15.5 268 19.1 101770 86
2002-08-28 07:46:05 51°19.757 2°58.841 14.3 267 19.2 101750 86
2002-08-28 07:46:10 51°19.764 2°58.868 15.8 260 19.2 101750 86
2002-08-28 07:46:16 51°19.771 2°58.901 15.7 263 19.2 101750 86
2002-08-28 07:46:21 51°19.778 2°58.927 15.5 264 19.2 101750 86
2002-08-28 07:46:25 51°19.783 2°58.948 16 263 19.2 101760 86
2002-08-28 07:46:30 51°19.789 2°58.974 16.1 262 19.2 101760 86
2002-08-28 07:46:36 51°19.797 2°59.006 14.5 259 19.2 101760 86
2002-08-28 07:46:41 51°19.804 2°59.033 14.7 260 19.2 101760 86
2002-08-28 07:46:46 51°19.809 2°59.06 15.3 259 19.2 101770 86
2002-08-28 07:46:50 51°19.815 2°59.081 14.7 263 19.2 101770 86
2002-08-28 07:46:56 51°19.821 2°59.113 14 265 19.2 101750 86
2002-08-28 07:47:01 51°19.828 2°59.139 15.1 267 19.2 101750 86
2002-08-28 07:47:05 51°19.833 2°59.16 14.6 267 19.2 101760 86
2002-08-28 07:47:10 51°19.839 2°59.186 16 264 19.2 101760 86
2002-08-28 07:47:16 51°19.846 2°59.218 16.3 266 19.2 101750 86
2002-08-28 07:47:21 51°19.852 2°59.244 15.5 269 19.2 101750 86
2002-08-28 07:47:25 51°19.858 2°59.265 15.1 268 19.1 101750 86
2002-08-28 07:47:30 51°19.863 2°59.292 16.4 268 19.1 101750 86
2002-08-28 07:47:35 51°19.869 2°59.318 16.2 265 19.2 101760 86
2002-08-28 07:47:41 51°19.877 2°59.35 15.5 261 19.2 101760 86
2002-08-28 07:47:45 51°19.882 2°59.371 16.2 258 19.2 101760 86
2002-08-28 07:47:50 51°19.889 2°59.397 16 265 19.2 101760 86
2002-08-28 07:47:56 51°19.896 2°59.429 15.9 268 19.2 101740 86
2002-08-28 07:48:01 51°19.902 2°59.455 15.5 269 19.2 101740 86
2002-08-28 07:48:05 51°19.907 2°59.477 15.2 268 19.2 101750 86
2002-08-28 07:48:10 51°19.913 2°59.503 16 270 19.2 101750 86
2002-08-28 07:48:14 51°19.918 2°59.524 15.9 269 19.2 101740 86
2002-08-28 07:48:21 51°19.927 2°59.561 15.9 269 19.2 101740 86
2002-08-28 07:48:25 51°19.932 2°59.581 15.8 266 19.2 101750 86
2002-08-28 07:48:29 51°19.937 2°59.603 15.8 272 19.2 101750 86
2002-08-28 07:48:36 51°19.946 2°59.639 13.9 268 19.2 101760 86
2002-08-28 07:48:41 51°19.952 2°59.665 14.5 263 19.2 101760 86
2002-08-28 07:48:45 51°19.958 2°59.686 14.7 262 19.2 101750 86
2002-08-28 07:48:50 51°19.964 2°59.712 16.9 269 19.2 101750 86
2002-08-28 07:48:56 51°19.971 2°59.743 16.4 269 19.2 101750 86
2002-08-28 07:49:01 51°19.978 2°59.769 15.2 268 19.2 101750 86
2002-08-28 07:49:06 51°19.984 2°59.796 16.7 269 19.2 101760 86
2002-08-28 07:49:10 51°19.989 2°59.817 17.3 270 19.2 101760 86
2002-08-28 07:49:14 51°19.994 2°59.837 16.3 264 19.2 101750 86
2002-08-28 07:49:20 51°20.001 2°59.869 15 258 19.2 101750 86
2002-08-28 07:49:26 51°20.009 2°59.9 15.4 257 19.2 101740 86
2002-08-28 07:49:31 51°20.016 2°59.927 16 260 19.2 101740 86
2002-08-28 07:49:35 51°20.021 2°59.948 15.8 263 19.2 101740 86
2002-08-28 07:49:41 51°20.028 2°59.978 16.6 260 19.2 101740 86
2002-08-28 07:49:46 51°20.034 3°0.004 15.3 260 19.2 101760 86
2002-08-28 07:49:49 51°20.039 3°0.02 15.7 263 19.2 101760 86
2002-08-28 07:49:53 51°20.043 3°0.041 15.6 258 19.2 101760 86
2002-08-28 07:50:01 51°20.053 3°0.083 15.6 261 19.2 101760 86
2002-08-28 07:50:06 51°20.059 3°0.109 16.1 260 19.2 101750 86
2002-08-28 07:50:10 51°20.064 3°0.129 16.3 259 19.2 101750 86
2002-08-28 07:50:16 51°20.072 3°0.161 15.3 259 19.2 101760 86
2002-08-28 07:50:21 51°20.079 3°0.187 14.9 260 19.2 101760 86
2002-08-28 07:50:25 51°20.083 3°0.207 15.4 264 19.2 101740 86
2002-08-28 07:50:30 51°20.09 3°0.233 15.6 263 19.2 101740 86
2002-08-28 07:50:36 51°20.098 3°0.264 15.6 263 19.2 101760 86
2002-08-28 07:50:41 51°20.104 3°0.29 15.8 265 19.2 101760 86
2002-08-28 07:50:46 51°20.11 3°0.316 15.4 268 19.2 101760 86
2002-08-28 07:50:50 51°20.115 3°0.337 14.2 260 19.2 101760 86
2002-08-28 07:50:56 51°20.122 3°0.369 14.2 259 19.2 101760 86
2002-08-28 07:51:01 51°20.13 3°0.394 14.2 260 19.2 101760 86
2002-08-28 07:51:05 51°20.134 3°0.415 14.9 260 19.2 101770 86
2002-08-28 07:51:10 51°20.141 3°0.441 15.4 263 19.2 101770 86
2002-08-28 07:51:16 51°20.148 3°0.472 15.4 263 19.2 101750 86
2002-08-28 07:51:20 51°20.154 3°0.492 15.2 264 19.2 101750 86
2002-08-28 07:51:25 51°20.161 3°0.518 16.1 265 19.2 101750 86
2002-08-28 07:51:30 51°20.168 3°0.543 15.9 259 19.2 101750 86
2002-08-28 07:51:34 51°20.173 3°0.564 15.8 262 19.2 101760 86
2002-08-28 07:51:40 51°20.182 3°0.594 15.1 265 19.2 101760 86
2002-08-28 07:51:45 51°20.189 3°0.62 15.2 268 19.2 101760 86
2002-08-28 07:51:50 51°20.196 3°0.645 14.7 261 19.2 101760 86
2002-08-28 07:51:54 51°20.202 3°0.665 15.1 254 19.2 101750 86
2002-08-28 07:52:00 51°20.211 3°0.696 14.6 258 19.2 101750 86
2002-08-28 07:52:06 51°20.219 3°0.726 15.5 262 19.2 101760 86
2002-08-28 07:52:10 51°20.224 3°0.746 15.8 260 19.2 101760 86
2002-08-28 07:52:14 51°20.23 3°0.766 15.7 260 19.2 101770 86
2002-08-28 07:52:21 51°20.24 3°0.802 14.8 261 19.2 101770 86
2002-08-28 07:52:25 51°20.246 3°0.822 16 268 19.2 101770 86
2002-08-28 07:52:29 51°20.251 3°0.842 15.4 262 19.2 101770 86
2002-08-28 07:52:36 51°20.261 3°0.878 15.6 263 19.2 101750 86
2002-08-28 07:52:41 51°20.268 3°0.903 16.3 260 19.2 101750 86
2002-08-28 07:52:45 51°20.274 3°0.923 16.1 258 19.2 101760 86
2002-08-28 07:52:50 51°20.281 3°0.948 15.5 261 19.2 101760 86
2002-08-28 07:52:56 51°20.289 3°0.978 15.1 260 19.3 101750 86
2002-08-28 07:53:00 51°20.295 3°0.999 15.2 262 19.3 101750 86
2002-08-28 07:53:06 51°20.303 3°1.029 14.9 260 19.2 101750 86
2002-08-28 07:53:10 51°20.309 3°1.049 14.9 261 19.2 101750 86
2002-08-28 07:53:14 51°20.314 3°1.07 16.8 263 19.3 101770 86
2002-08-28 07:53:17 51°20.318 3°1.085 16.4 263 19.3 101770 86
2002-08-28 07:53:25 51°20.328 3°1.126 15.6 263 19.2 101740 86
2002-08-28 07:53:29 51°20.333 3°1.146 14.9 265 19.2 101740 86
2002-08-28 07:53:34 51°20.339 3°1.172 14.6 264 19.2 101740 86
2002-08-28 07:53:41 51°20.349 3°1.207 14.4 265 19.2 101740 86
2002-08-28 07:53:45 51°20.354 3°1.227 15.6 262 19.2 101750 86
2002-08-28 07:53:50 51°20.361 3°1.253 15.8 266 19.2 101750 86
2002-08-28 07:53:55 51°20.368 3°1.278 16.4 268 19.2 101760 86
2002-08-28 07:54:01 51°20.376 3°1.308 14.8 266 19.2 101760 86
2002-08-28 07:54:05 51°20.382 3°1.328 15.7 261 19.2 101740 86
2002-08-28 07:54:10 51°20.388 3°1.354 15.9 263 19.2 101740 86
2002-08-28 07:54:16 51°20.396 3°1.384 15.5 264 19.2 101750 86
2002-08-28 07:54:21 51°20.403 3°1.41 15.8 266 19.2 101750 86
2002-08-28 07:54:26 51°20.41 3°1.434 15.1 261 19.2 101740 86
2002-08-28 07:54:30 51°20.415 3°1.455 15.2 260 19.2 101740 86
2002-08-28 07:54:35 51°20.421 3°1.48 15.8 260 19.2 101750 86
2002-08-28 07:54:40 51°20.428 3°1.505 16.1 265 19.2 101750 86
2002-08-28 07:54:45 51°20.435 3°1.53 15.7 266 19.2 101760 86
2002-08-28 07:54:50 51°20.442 3°1.555 14.9 262 19.2 101760 86
2002-08-28 07:54:56 51°20.45 3°1.585 15.2 266 19.2 101750 86
2002-08-28 07:55:01 51°20.456 3°1.611 15.8 268 19.2 101750 86
2002-08-28 07:55:05 51°20.462 3°1.631 16.2 267 19.2 101750 86
2002-08-28 07:55:10 51°20.469 3°1.656 17.5 269 19.2 101750 86
2002-08-28 07:55:16 51°20.477 3°1.686 16.4 272 19.2 101750 86
2002-08-28 07:55:21 51°20.484 3°1.712 16.7 262 19.2 101750 86
2002-08-28 07:55:26 51°20.491 3°1.737 15.9 267 19.2 101750 86
2002-08-28 07:55:30 51°20.496 3°1.757 15 265 19.2 101750 86
2002-08-28 07:55:34 51°20.501 3°1.778 15.3 265 19.2 101750 86
2002-08-28 07:55:41 51°20.511 3°1.813 15.4 266 19.2 101750 86
2002-08-28 07:55:45 51°20.517 3°1.833 14.5 261 19.2 101750 86
2002-08-28 07:55:50 51°20.523 3°1.859 14.6 262 19.2 101750 86
2002-08-28 07:55:56 51°20.532 3°1.889 13.8 262 19.2 101760 86
2002-08-28 07:56:01 51°20.539 3°1.913 15 259 19.2 101760 86
2002-08-28 07:56:05 51°20.544 3°1.934 15.6 266 19.3 101760 86
2002-08-28 07:56:10 51°20.551 3°1.959 14.7 267 19.3 101760 86
2002-08-28 07:56:14 51°20.556 3°1.979 14.5 265 19.3 101750 86
2002-08-28 07:56:20 51°20.564 3°2.01 15.7 265 19.3 101750 86
2002-08-28 07:56:25 51°20.571 3°2.035 17.1 265 19.3 101770 86
2002-08-28 07:56:30 51°20.578 3°2.06 16.2 269 19.3 101770 86
2002-08-28 07:56:36 51°20.586 3°2.09 15.5 267 19.3 101760 86
2002-08-28 07:56:41 51°20.592 3°2.115 15.7 266 19.3 101760 86
2002-08-28 07:56:45 51°20.599 3°2.135 14.4 262 19.3 101760 86
2002-08-28 07:56:50 51°20.606 3°2.161 15.4 262 19.3 101760 86
2002-08-28 07:56:56 51°20.614 3°2.191 14.9 261 19.3 101750 85
2002-08-28 07:57:00 51°20.619 3°2.211 15.5 262 19.3 101750 85
2002-08-28 07:57:06 51°20.628 3°2.24 15 264 19.2 101760 85
2002-08-28 07:57:10 51°20.633 3°2.261 16.3 263 19.2 101760 85
2002-08-28 07:57:14 51°20.639 3°2.281 16 264 19.2 101760 86
2002-08-28 07:57:21 51°20.647 3°2.316 15.1 264 19.2 101760 86
2002-08-28 07:57:25 51°20.653 3°2.336 15.4 260 19.2 101770 86
2002-08-28 07:57:29 51°20.658 3°2.356 14.9 261 19.2 101770 86
2002-08-28 07:57:34 51°20.665 3°2.381 16 265 19.2 101770 86
2002-08-28 07:57:41 51°20.675 3°2.416 14 263 19.2 101770 86
2002-08-28 07:57:45 51°20.68 3°2.436 14.7 256 19.2 101760 86
2002-08-28 07:57:50 51°20.688 3°2.46 13.6 260 19.2 101760 86
2002-08-28 07:57:56 51°20.695 3°2.491 14.4 262 19.2 101750 86
2002-08-28 07:58:01 51°20.703 3°2.515 14.8 257 19.2 101750 86
2002-08-28 07:58:06 51°20.709 3°2.541 14.5 260 19.2 101750 86
2002-08-28 07:58:10 51°20.715 3°2.561 15.8 266 19.2 101750 86
2002-08-28 07:58:15 51°20.721 3°2.586 15.4 261 19.3 101750 86
2002-08-28 07:58:21 51°20.73 3°2.616 14.4 260 19.3 101750 86
2002-08-28 07:58:26 51°20.736 3°2.641 15.5 261 19.3 101750 86
2002-08-28 07:58:30 51°20.742 3°2.661 15.2 260 19.3 101750 86
2002-08-28 07:58:35 51°20.748 3°2.686 14.6 262 19.2 101770 86
2002-08-28 07:58:41 51°20.757 3°2.716 14.3 261 19.2 101770 86
2002-08-28 07:58:45 51°20.762 3°2.736 15.3 266 19.2 101760 86
2002-08-28 07:58:50 51°20.769 3°2.761 16.5 265 19.2 101760 86
2002-08-28 07:58:56 51°20.777 3°2.791 15.4 264 19.2 101760 85
2002-08-28 07:59:01 51°20.784 3°2.816 15 266 19.2 101760 85
2002-08-28 07:59:06 51°20.79 3°2.841 15.5 265 19.2 101750 85
2002-08-28 07:59:10 51°20.795 3°2.862 16.4 266 19.2 101750 85
2002-08-28 07:59:14 51°20.801 3°2.881 15 259 19.2 101760 85
2002-08-28 07:59:21 51°20.81 3°2.916 15.7 263 19.2 101760 85
2002-08-28 07:59:25 51°20.815 3°2.937 15.1 261 19.2 101740 85
2002-08-28 07:59:29 51°20.821 3°2.956 14.5 263 19.2 101740 85
2002-08-28 07:59:36 51°20.829 3°2.991 15.6 267 19.2 101750 85
2002-08-28 07:59:41 51°20.836 3°3.016 14.5 266 19.2 101750 85
2002-08-28 07:59:45 51°20.841 3°3.036 14.4 268 19.2 101750 85
2002-08-28 07:59:50 51°20.848 3°3.061 14.3 268 19.2 101750 85
2002-08-28 07:59:55 51°20.854 3°3.086 14.7 267 19.2 101750 85
2002-08-28 08:00:01 51°20.862 3°3.116 15.3 261 19.2 101750 85
2002-08-28 08:00:05 51°20.867 3°3.136 14.4 265 19.2 101760 85
2002-08-28 08:00:10 51°20.875 3°3.16 14.1 266 19.2 101760 85
2002-08-28 08:00:16 51°20.883 3°3.19 14.1 266 19.2 101760 85
2002-08-28 08:00:20 51°20.89 3°3.209 14.4 260 19.2 101760 85
2002-08-28 08:00:26 51°20.899 3°3.239 14.2 262 19.2 101750 85
2002-08-28 08:00:31 51°20.906 3°3.264 16.1 263 19.2 101750 85
2002-08-28 08:00:35 51°20.912 3°3.284 14.6 263 19.2 101750 85
2002-08-28 08:00:41 51°20.921 3°3.313 14.1 261 19.2 101750 85
2002-08-28 08:00:46 51°20.928 3°3.337 13.7 262 19.2 101760 85
2002-08-28 08:00:51 51°20.936 3°3.362 14.1 264 19.2 101760 85
2002-08-28 08:00:55 51°20.942 3°3.381 15.4 266 19.2 101780 86
2002-08-28 08:01:01 51°20.951 3°3.411 16.2 263 19.2 101780 86
2002-08-28 08:01:05 51°20.957 3°3.431 15.4 263 19.3 101760 86
2002-08-28 08:01:11 51°20.966 3°3.46 13.9 262 19.3 101760 86
2002-08-28 08:01:16 51°20.973 3°3.485 14 261 19.3 101760 86
2002-08-28 08:01:21 51°20.981 3°3.509 14.2 265 19.3 101760 86
2002-08-28 08:01:26 51°20.989 3°3.533 15 260 19.3 101760 86
2002-08-28 08:01:30 51°20.994 3°3.554 15.2 259 19.3 101760 86
2002-08-28 08:01:36 51°21.004 3°3.582 13.5 255 19.3 101760 86
2002-08-28 08:01:41 51°21.011 3°3.606 14.9 257 19.3 101760 86
2002-08-28 08:01:46 51°21.019 3°3.631 15 259 19.3 101780 86
2002-08-28 08:01:50 51°21.025 3°3.651 14.7 261 19.3 101780 86
2002-08-28 08:01:56 51°21.034 3°3.68 14.2 258 19.3 101770 86
2002-08-28 08:02:01 51°21.042 3°3.704 13.9 262 19.3 101770 86
2002-08-28 08:02:06 51°21.05 3°3.729 13.7 257 19.3 101770 86
2002-08-28 08:02:10 51°21.055 3°3.749 14.8 261 19.3 101770 86
2002-08-28 08:02:16 51°21.064 3°3.778 14.1 260 19.3 101770 86
2002-08-28 08:02:21 51°21.072 3°3.803 15 258 19.3 101770 86
2002-08-28 08:02:25 51°21.078 3°3.822 15.5 259 19.3 101780 86
2002-08-28 08:02:30 51°21.085 3°3.847 15.3 266 19.3 101780 86
2002-08-28 08:02:36 51°21.095 3°3.876 14.9 258 19.3 101770 86
2002-08-28 08:02:41 51°21.102 3°3.9 14.6 261 19.3 101770 86
2002-08-28 08:02:46 51°21.11 3°3.925 14.2 258 19.4 101750 86
2002-08-28 08:02:50 51°21.116 3°3.944 14.9 260 19.4 101750 86
2002-08-28 08:02:54 51°21.122 3°3.964 15.4 261 19.3 101750 86
2002-08-28 08:03:01 51°21.133 3°3.998 15.5 263 19.3 101750 86
2002-08-28 08:03:06 51°21.14 3°4.023 16.1 263 19.3 101750 85
2002-08-28 08:03:10 51°21.146 3°4.042 16.2 262 19.3 101750 85
2002-08-28 08:03:14 51°21.152 3°4.062 15.5 262 19.3 101770 86
2002-08-28 08:03:21 51°21.162 3°4.096 15.6 267 19.3 101770 86
2002-08-28 08:03:26 51°21.17 3°4.121 14.8 260 19.3 101770 86
2002-08-28 08:03:30 51°21.175 3°4.14 15.5 260 19.3 101770 86
2002-08-28 08:03:36 51°21.183 3°4.17 15.8 263 19.3 101760 85
2002-08-28 08:03:41 51°21.191 3°4.194 15.2 263 19.3 101760 85
2002-08-28 08:03:46 51°21.198 3°4.219 16 260 19.3 101750 85
2002-08-28 08:03:51 51°21.205 3°4.243 16.7 262 19.3 101750 85
2002-08-28 08:03:56 51°21.212 3°4.268 15.6 262 19.3 101760 85
2002-08-28 08:04:01 51°21.219 3°4.293 16.1 266 19.3 101760 85
2002-08-28 08:04:06 51°21.227 3°4.317 16.3 271 19.3 101740 85
2002-08-28 08:04:11 51°21.233 3°4.342 16.6 268 19.3 101740 85
2002-08-28 08:04:16 51°21.241 3°4.366 15.7 262 19.3 101750 85
2002-08-28 08:04:21 51°21.248 3°4.391 15.3 265 19.3 101750 85
2002-08-28 08:04:26 51°21.255 3°4.416 15.4 265 19.3 101760 85
2002-08-28 08:04:30 51°21.261 3°4.435 16 266 19.3 101760 85
2002-08-28 08:04:36 51°21.27 3°4.465 15.1 267 19.3 101750 85
2002-08-28 08:04:41 51°21.277 3°4.49 14.9 262 19.3 101750 85
2002-08-28 08:04:46 51°21.284 3°4.515 14.2 261 19.3 101750 85
2002-08-28 08:04:50 51°21.29 3°4.535 14.4 263 19.3 101750 85
2002-08-28 08:04:56 51°21.299 3°4.564 14 262 19.3 101770 85
2002-08-28 08:05:00 51°21.305 3°4.584 14.1 260 19.3 101770 85
2002-08-28 08:05:06 51°21.314 3°4.613 13.4 257 19.2 101750 85
2002-08-28 08:05:11 51°21.321 3°4.638 14.9 259 19.2 101750 85
2002-08-28 08:05:16 51°21.33 3°4.662 15.8 256 19.2 101770 85
2002-08-28 08:05:21 51°21.337 3°4.686 15.3 260 19.2 101770 85
2002-08-28 08:05:26 51°21.344 3°4.711 15.1 257 19.3 101760 86
2002-08-28 08:05:30 51°21.35 3°4.73 13.9 256 19.3 101760 86
2002-08-28 08:05:36 51°21.358 3°4.76 14.7 257 19.3 101770 86
2002-08-28 08:05:41 51°21.366 3°4.785 15.3 254 19.3 101770 86
2002-08-28 08:05:46 51°21.372 3°4.81 14 255 19.3 101770 86
2002-08-28 08:05:50 51°21.378 3°4.83 14.5 257 19.3 101770 86
2002-08-28 08:05:56 51°21.386 3°4.86 12.5 250 19.3 101770 86
2002-08-28 08:06:01 51°21.394 3°4.884 14.3 252 19.3 101770 86
2002-08-28 08:06:06 51°21.401 3°4.909 14.6 255 19.3 101780 86
2002-08-28 08:06:10 51°21.407 3°4.928 15.3 256 19.3 101780 86
2002-08-28 08:06:15 51°21.415 3°4.952 15.3 255 19.3 101770 85
2002-08-28 08:06:21 51°21.424 3°4.98 15.8 255 19.3 101770 85
2002-08-28 08:06:26 51°21.431 3°5.005 15.4 261 19.3 101770 85
2002-08-28 08:06:30 51°21.438 3°5.024 13.2 257 19.3 101770 85
2002-08-28 08:06:36 51°21.446 3°5.054 15.1 255 19.3 101770 85
2002-08-28 08:06:41 51°21.454 3°5.078 15.1 257 19.3 101770 85
2002-08-28 08:06:46 51°21.46 3°5.103 14.9 259 19.3 101770 85
2002-08-28 08:06:50 51°21.467 3°5.122 13.7 259 19.3 101770 85
2002-08-28 08:06:55 51°21.473 3°5.147 14.4 259 19.3 101750 85
2002-08-28 08:07:01 51°21.483 3°5.176 14.9 260 19.3 101750 85
2002-08-28 08:07:06 51°21.489 3°5.201 14.7 264 19.3 101760 85
2002-08-28 08:07:10 51°21.496 3°5.22 14.1 259 19.3 101760 85
2002-08-28 08:07:16 51°21.505 3°5.249 14.7 266 19.3 101760 85
2002-08-28 08:07:21 51°21.512 3°5.273 15 261 19.3 101760 85
2002-08-28 08:07:26 51°21.52 3°5.297 14.5 262 19.3 101770 85
2002-08-28 08:07:30 51°21.526 3°5.317 14.1 262 19.3 101770 85
2002-08-28 08:07:36 51°21.535 3°5.346 14.4 263 19.3 101770 85
2002-08-28 08:07:41 51°21.542 3°5.37 15.3 264 19.3 101770 85
2002-08-28 08:07:46 51°21.549 3°5.394 15.1 264 19.3 101770 85
2002-08-28 08:07:50 51°21.555 3°5.414 15.4 264 19.3 101770 85
2002-08-28 08:07:56 51°21.564 3°5.444 15.5 266 19.3 101770 85
2002-08-28 08:08:01 51°21.571 3°5.468 14.2 259 19.3 101770 85
2002-08-28 08:08:06 51°21.577 3°5.493 15.6 262 19.3 101760 85
2002-08-28 08:08:11 51°21.583 3°5.518 14.1 260 19.3 101760 85
2002-08-28 08:08:16 51°21.59 3°5.543 14.5 263 19.3 101770 85
2002-08-28 08:08:21 51°21.597 3°5.568 13.9 256 19.3 101770 85
2002-08-28 08:08:25 51°21.602 3°5.588 14.7 258 19.3 101770 86
2002-08-28 08:08:30 51°21.609 3°5.613 14.5 260 19.3 101770 86
2002-08-28 08:08:36 51°21.616 3°5.643 14.8 262 19.4 101770 86
2002-08-28 08:08:41 51°21.623 3°5.667 14.5 261 19.4 101770 86
2002-08-28 08:08:45 51°21.628 3°5.688 14.9 261 19.4 101770 86
2002-08-28 08:08:51 51°21.636 3°5.718 15.3 258 19.4 101770 86
2002-08-28 08:08:56 51°21.641 3°5.743 14.4 259 19.3 101770 85
2002-08-28 08:09:01 51°21.648 3°5.768 16.1 261 19.3 101770 85
2002-08-28 08:09:06 51°21.654 3°5.793 14.2 258 19.3 101770 85
2002-08-28 08:09:10 51°21.66 3°5.813 16.1 262 19.3 101770 85
2002-08-28 08:09:16 51°21.667 3°5.843 16.3 263 19.3 101770 85
2002-08-28 08:09:21 51°21.674 3°5.868 16.1 259 19.3 101770 85
2002-08-28 08:09:26 51°21.68 3°5.893 15.4 263 19.3 101760 85
2002-08-28 08:09:30 51°21.685 3°5.913 13.9 258 19.3 101760 85
2002-08-28 08:09:36 51°21.693 3°5.943 15.1 263 19.3 101760 85
2002-08-28 08:09:41 51°21.699 3°5.968 14.8 261 19.3 101760 85
2002-08-28 08:09:46 51°21.705 3°5.994 14.7 267 19.3 101770 85
2002-08-28 08:09:50 51°21.71 3°6.014 14.6 261 19.3 101770 85
2002-08-28 08:09:56 51°21.717 3°6.044 15.2 267 19.3 101760 85
2002-08-28 08:10:01 51°21.723 3°6.069 13 260 19.3 101760 85
2002-08-28 08:10:06 51°21.73 3°6.094 14.1 261 19.3 101760 85
2002-08-28 08:10:10 51°21.735 3°6.114 13.6 258 19.3 101760 85
2002-08-28 08:10:16 51°21.742 3°6.145 15.4 262 19.3 101760 85
2002-08-28 08:10:21 51°21.747 3°6.171 15.2 267 19.3 101760 85
2002-08-28 08:10:26 51°21.753 3°6.197 14.7 267 19.3 101770 85
2002-08-28 08:10:31 51°21.756 3°6.223 14.7 272 19.3 101770 85
2002-08-28 08:10:36 51°21.761 3°6.249 14.5 269 19.3 101780 85
2002-08-28 08:10:41 51°21.765 3°6.275 14.8 270 19.3 101780 85
2002-08-28 08:10:46 51°21.769 3°6.301 13.4 269 19.3 101780 85
2002-08-28 08:10:50 51°21.771 3°6.322 15.1 272 19.3 101780 85
2002-08-28 08:10:56 51°21.778 3°6.353 14 270 19.3 101760 85
2002-08-28 08:11:01 51°21.78 3°6.379 14.9 268 19.3 101760 85
2002-08-28 08:11:06 51°21.785 3°6.406 14.1 268 19.3 101750 85
2002-08-28 08:11:10 51°21.788 3°6.427 13.2 265 19.3 101750 85
2002-08-28 08:11:16 51°21.792 3°6.458 14.7 267 19.3 101760 85
2002-08-28 08:11:21 51°21.796 3°6.484 15.3 268 19.3 101760 85
2002-08-28 08:11:25 51°21.799 3°6.505 15.6 271 19.3 101760 85
2002-08-28 08:11:30 51°21.804 3°6.531 14.8 271 19.3 101760 85
2002-08-28 08:11:36 51°21.81 3°6.562 15.2 267 19.3 101770 85
2002-08-28 08:11:41 51°21.815 3°6.588 14.7 272 19.3 101770 85
2002-08-28 08:11:45 51°21.819 3°6.609 13.8 269 19.3 101770 85
2002-08-28 08:11:50 51°21.823 3°6.635 13.8 272 19.3 101770 85
2002-08-28 08:11:55 51°21.828 3°6.66 13.6 270 19.3 101770 85
2002-08-28 08:12:01 51°21.834 3°6.691 13.7 267 19.3 101770 85
2002-08-28 08:12:05 51°21.837 3°6.712 13.2 268 19.3 101760 85
2002-08-28 08:12:11 51°21.843 3°6.743 15.1 268 19.3 101760 85
2002-08-28 08:12:16 51°21.848 3°6.769 14.6 269 19.3 101760 85
2002-08-28 08:12:21 51°21.852 3°6.795 14.7 260 19.3 101760 85
2002-08-28 08:12:26 51°21.856 3°6.82 14.7 264 19.3 101760 86
2002-08-28 08:12:31 51°21.861 3°6.846 14.9 264 19.3 101760 86
2002-08-28 08:12:35 51°21.865 3°6.867 15 265 19.4 101770 86
2002-08-28 08:12:41 51°21.87 3°6.898 14.9 266 19.4 101770 86
2002-08-28 08:12:46 51°21.875 3°6.924 15.6 267 19.4 101760 86
2002-08-28 08:12:51 51°21.879 3°6.95 14.9 267 19.4 101760 86
2002-08-28 08:12:55 51°21.884 3°6.97 15 268 19.3 101770 85
2002-08-28 08:13:01 51°21.888 3°7.002 15 266 19.3 101770 85
2002-08-28 08:13:06 51°21.895 3°7.027 14.7 268 19.3 101770 85
2002-08-28 08:13:11 51°21.897 3°7.054 15.2 268 19.3 101770 85
2002-08-28 08:13:16 51°21.903 3°7.079 15.4 267 19.3 101770 85
2002-08-28 08:13:21 51°21.906 3°7.106 14.7 264 19.3 101770 85
2002-08-28 08:13:26 51°21.91 3°7.132 14.1 262 19.3 101770 85
2002-08-28 08:13:31 51°21.914 3°7.158 14.7 266 19.3 101770 85
2002-08-28 08:13:36 51°21.917 3°7.185 14.8 264 19.3 101770 85
2002-08-28 08:13:41 51°21.921 3°7.211 14.8 268 19.3 101770 85
2002-08-28 08:13:46 51°21.925 3°7.237 14.4 268 19.3 101760 85
2002-08-28 08:13:51 51°21.929 3°7.264 14 267 19.3 101760 85
2002-08-28 08:13:56 51°21.932 3°7.291 14.5 266 19.2 101760 85
2002-08-28 08:14:01 51°21.937 3°7.317 14.5 267 19.2 101760 85
2002-08-28 08:14:06 51°21.94 3°7.344 14.5 267 19.2 101760 85
2002-08-28 08:14:11 51°21.945 3°7.37 14.5 265 19.2 101760 85
2002-08-28 08:14:15 51°21.947 3°7.392 14.1 261 19.2 101770 85
2002-08-28 08:14:18 51°21.95 3°7.408 14.1 269 19.2 101770 85
2002-08-28 08:14:26 51°21.955 3°7.451 13.7 267 19.2 101780 85
2002-08-28 08:14:30 51°21.958 3°7.472 14.3 272 19.2 101780 85
2002-08-28 08:14:35 51°21.962 3°7.498 14 268 19.2 101770 85
2002-08-28 08:14:41 51°21.967 3°7.53 14.3 266 19.2 101770 85
2002-08-28 08:14:46 51°21.969 3°7.556 13.5 273 19.2 101770 85
2002-08-28 08:14:51 51°21.972 3°7.583 15.7 270 19.2 101770 85
2002-08-28 08:14:55 51°21.976 3°7.604 16 274 19.2 101770 85
2002-08-28 08:15:01 51°21.979 3°7.636 14.6 272 19.2 101770 85
2002-08-28 08:15:06 51°21.984 3°7.662 14.1 271 19.2 101760 85
2002-08-28 08:15:11 51°21.986 3°7.688 14.2 275 19.2 101760 85
2002-08-28 08:15:15 51°21.99 3°7.709 14.5 273 19.2 101780 85
2002-08-28 08:15:21 51°21.993 3°7.741 13.4 271 19.2 101780 85
2002-08-28 08:15:26 51°21.997 3°7.767 13.7 274 19.2 101770 85
2002-08-28 08:15:31 51°22.001 3°7.794 16.1 268 19.2 101770 85
2002-08-28 08:15:36 51°22.005 3°7.82 15.2 274 19.3 101770 85
2002-08-28 08:15:41 51°22.007 3°7.847 13.9 271 19.3 101770 85
2002-08-28 08:15:46 51°22.012 3°7.873 14.3 271 19.3 101760 85
2002-08-28 08:15:51 51°22.015 3°7.9 14.5 270 19.3 101760 85
2002-08-28 08:15:56 51°22.019 3°7.926 13.9 269 19.2 101780 85
2002-08-28 08:16:01 51°22.021 3°7.953 13.8 266 19.2 101780 85
2002-08-28 08:16:06 51°22.026 3°7.979 14.7 268 19.2 101770 85
2002-08-28 08:16:11 51°22.028 3°8.006 16 264 19.2 101770 85
2002-08-28 08:16:16 51°22.032 3°8.032 15.1 267 19.3 101770 85
2002-08-28 08:16:21 51°22.035 3°8.058 14.2 269 19.3 101770 85
2002-08-28 08:16:26 51°22.039 3°8.084 14.9 268 19.3 101760 86
2002-08-28 08:16:31 51°22.041 3°8.11 15.8 273 19.3 101760 86
2002-08-28 08:16:35 51°22.046 3°8.131 14 267 19.3 101770 86
2002-08-28 08:16:41 51°22.049 3°8.163 14.5 265 19.3 101770 86
2002-08-28 08:16:46 51°22.053 3°8.188 14.6 260 19.3 101770 85
2002-08-28 08:16:51 51°22.056 3°8.214 15.1 266 19.3 101770 85
2002-08-28 08:16:56 51°22.06 3°8.239 15.6 266 19.3 101770 85
2002-08-28 08:17:02 51°22.064 3°8.271 15 272 19.3 101770 85
2002-08-28 08:17:06 51°22.068 3°8.291 14.8 269 19.3 101780 85
2002-08-28 08:17:11 51°22.071 3°8.317 14.1 264 19.3 101780 85
2002-08-28 08:17:16 51°22.075 3°8.342 13.5 267 19.3 101760 85
2002-08-28 08:17:22 51°22.079 3°8.373 14.1 269 19.3 101760 85
2002-08-28 08:17:26 51°22.082 3°8.393 14.2 269 19.3 101770 85
2002-08-28 08:17:31 51°22.085 3°8.419 14.5 265 19.3 101770 85
2002-08-28 08:17:36 51°22.088 3°8.445 14 268 19.3 101770 85
2002-08-28 08:17:41 51°22.091 3°8.47 14.2 270 19.3 101770 85
2002-08-28 08:17:46 51°22.094 3°8.496 13.5 268 19.4 101780 85
2002-08-28 08:17:51 51°22.097 3°8.521 14.6 267 19.4 101780 85
2002-08-28 08:17:56 51°22.099 3°8.545 13.5 272 19.3 101770 85
2002-08-28 08:18:01 51°22.102 3°8.568 14 271 19.3 101770 85
2002-08-28 08:18:06 51°22.104 3°8.59 13 266 19.3 101780 85
2002-08-28 08:18:11 51°22.106 3°8.611 11.7 269 19.3 101780 85
2002-08-28 08:18:15 51°22.107 3°8.628 12.5 267 19.3 101780 85
2002-08-28 08:18:21 51°22.11 3°8.652 13.5 275 19.3 101780 85
2002-08-28 08:18:26 51°22.111 3°8.672 12.9 275 19.3 101780 85
2002-08-28 08:18:31 51°22.112 3°8.692 11.7 280 19.3 101780 85
2002-08-28 08:18:36 51°22.11 3°8.711 11.7 282 19.3 101770 85
2002-08-28 08:18:41 51°22.109 3°8.73 11.2 282 19.3 101770 85
2002-08-28 08:18:46 51°22.107 3°8.749 11.4 279 19.3 101780 85
2002-08-28 08:18:51 51°22.106 3°8.768 11.8 280 19.3 101780 85
2002-08-28 08:18:56 51°22.104 3°8.786 11.2 284 19.2 101770 85
2002-08-28 08:19:01 51°22.103 3°8.805 10.9 279 19.2 101770 85
2002-08-28 08:19:06 51°22.102 3°8.823 11.1 280 19.3 101770 85
2002-08-28 08:19:11 51°22.101 3°8.841 11.4 277 19.3 101770 85
2002-08-28 08:19:16 51°22.1 3°8.859 11.4 279 19.3 101780 85
2002-08-28 08:19:20 51°22.099 3°8.874 11.8 281 19.3 101780 85
2002-08-28 08:19:26 51°22.098 3°8.895 9.9 281 19.3 101790 85
2002-08-28 08:19:31 51°22.098 3°8.913 11.4 277 19.3 101790 85
2002-08-28 08:19:35 51°22.097 3°8.928 11.9 281 19.3 101780 85
2002-08-28 08:19:41 51°22.096 3°8.949 12.6 278 19.3 101780 85
2002-08-28 08:19:46 51°22.096 3°8.967 12.2 278 19.2 101780 85
2002-08-28 08:19:51 51°22.096 3°8.984 11.9 281 19.2 101780 85
2002-08-28 08:19:56 51°22.096 3°9.002 12 283 19.3 101790 85
2002-08-28 08:20:01 51°22.095 3°9.019 12.3 284 19.3 101790 85
2002-08-28 08:20:06 51°22.096 3°9.037 11.7 283 19.3 101780 85
2002-08-28 08:20:11 51°22.096 3°9.055 11.2 282 19.3 101780 85
2002-08-28 08:20:15 51°22.096 3°9.069 12.3 279 19.3 101780 85
2002-08-28 08:20:21 51°22.096 3°9.09 12.9 281 19.3 101780 85
2002-08-28 08:20:26 51°22.097 3°9.108 12 283 19.3 101780 85
2002-08-28 08:20:31 51°22.097 3°9.126 11.5 275 19.3 101780 85
2002-08-28 08:20:35 51°22.098 3°9.139 11 274 19.3 101780 85
2002-08-28 08:20:38 51°22.098 3°9.15 11.7 276 19.3 101780 85
2002-08-28 08:20:46 51°22.098 3°9.178 12.4 280 19.3 101780 85
2002-08-28 08:20:51 51°22.097 3°9.196 12.1 284 19.3 101780 85
2002-08-28 08:20:56 51°22.096 3°9.214 11.7 285 19.3 101780 85
2002-08-28 08:21:01 51°22.095 3°9.232 10.4 281 19.3 101780 85
2002-08-28 08:21:06 51°22.094 3°9.251 12.2 280 19.3 101780 85
2002-08-28 08:21:11 51°22.094 3°9.271 11.7 274 19.3 101780 85
2002-08-28 08:21:15 51°22.094 3°9.288 13 280 19.3 101780 85
2002-08-28 08:21:21 51°22.095 3°9.315 13.1 275 19.3 101780 85
2002-08-28 08:21:26 51°22.095 3°9.339 12.8 273 19.3 101780 85
2002-08-28 08:21:31 51°22.096 3°9.362 12.5 268 19.3 101780 85
2002-08-28 08:21:34 51°22.096 3°9.377 12.6 267 19.3 101770 85
2002-08-28 08:21:41 51°22.099 3°9.411 12.9 269 19.3 101770 85
2002-08-28 08:21:47 51°22.101 3°9.441 14.3 268 19.3 101770 85
2002-08-28 08:21:51 51°22.103 3°9.461 13.8 269 19.3 101770 85
2002-08-28 08:21:55 51°22.104 3°9.481 14.8 268 19.3 101770 85
2002-08-28 08:21:59 51°22.106 3°9.501 14.7 272 19.3 101770 85
2002-08-28 08:22:06 51°22.11 3°9.537 13.5 272 19.3 101770 85
2002-08-28 08:22:11 51°22.113 3°9.562 13.4 265 19.3 101770 85
2002-08-28 08:22:15 51°22.116 3°9.583 14 267 19.4 101770 85
2002-08-28 08:22:21 51°22.121 3°9.612 12.9 262 19.4 101770 85
2002-08-28 08:22:26 51°22.125 3°9.637 13.6 261 19.3 101780 85
2002-08-28 08:22:31 51°22.131 3°9.661 14.2 267 19.3 101780 85
2002-08-28 08:22:36 51°22.136 3°9.686 13.6 260 19.3 101770 85
2002-08-28 08:22:41 51°22.142 3°9.71 14 264 19.3 101770 85
2002-08-28 08:22:46 51°22.147 3°9.735 14.5 266 19.3 101760 85
2002-08-28 08:22:51 51°22.153 3°9.759 13.8 263 19.3 101760 85
2002-08-28 08:22:56 51°22.157 3°9.784 14.7 263 19.4 101770 85
2002-08-28 08:23:01 51°22.164 3°9.808 15 263 19.4 101770 85
2002-08-28 08:23:06 51°22.168 3°9.833 14 262 19.3 101770 85
2002-08-28 08:23:11 51°22.175 3°9.856 14.5 264 19.3 101770 85
2002-08-28 08:23:16 51°22.179 3°9.881 14 263 19.4 101780 85
2002-08-28 08:23:21 51°22.185 3°9.905 15.6 267 19.4 101780 85
2002-08-28 08:23:26 51°22.19 3°9.93 14.6 265 19.3 101760 85
2002-08-28 08:23:31 51°22.196 3°9.954 14.8 267 19.3 101760 85
2002-08-28 08:23:35 51°22.199 3°9.973 14.8 267 19.4 101770 85
2002-08-28 08:23:41 51°22.205 3°10.003 14.7 269 19.4 101770 85
2002-08-28 08:23:46 51°22.211 3°10.028 14.4 264 19.4 101760 85
2002-08-28 08:23:51 51°22.216 3°10.052 15.4 264 19.4 101760 85
2002-08-28 08:23:55 51°22.22 3°10.072 15.6 265 19.4 101770 85
2002-08-28 08:23:58 51°22.223 3°10.086 15.9 267 19.4 101770 85
2002-08-28 08:24:06 51°22.231 3°10.126 15.4 265 19.4 101770 85
2002-08-28 08:24:11 51°22.236 3°10.151 15.4 267 19.4 101770 85
2002-08-28 08:24:15 51°22.239 3°10.171 14.5 266 19.4 101770 85
2002-08-28 08:24:21 51°22.245 3°10.201 14 267 19.4 101770 85
2002-08-28 08:24:26 51°22.25 3°10.226 14.3 265 19.4 101760 85
2002-08-28 08:24:31 51°22.255 3°10.251 14.1 272 19.4 101760 85
2002-08-28 08:24:36 51°22.259 3°10.276 13.8 270 19.3 101760 85
2002-08-28 08:24:41 51°22.264 3°10.301 14.9 271 19.3 101760 85
2002-08-28 08:24:46 51°22.269 3°10.326 15.1 269 19.3 101760 84
2002-08-28 08:24:51 51°22.273 3°10.351 14.4 267 19.3 101760 84
2002-08-28 08:24:56 51°22.278 3°10.377 14.9 271 19.3 101780 84
2002-08-28 08:25:01 51°22.283 3°10.402 14.2 270 19.3 101780 84
2002-08-28 08:25:06 51°22.288 3°10.426 13.3 270 19.4 101770 85
2002-08-28 08:25:11 51°22.292 3°10.452 13.5 274 19.4 101770 85
2002-08-28 08:25:15 51°22.296 3°10.473 14.3 269 19.3 101770 85
2002-08-28 08:25:21 51°22.302 3°10.503 14.6 266 19.3 101770 85
2002-08-28 08:25:26 51°22.307 3°10.528 14.5 268 19.4 101770 85
2002-08-28 08:25:31 51°22.313 3°10.553 13.6 268 19.4 101770 85
2002-08-28 08:25:35 51°22.316 3°10.573 13.6 267 19.4 101770 85
2002-08-28 08:25:41 51°22.323 3°10.603 14.9 266 19.4 101770 85
2002-08-28 08:25:46 51°22.327 3°10.628 13.9 268 19.4 101760 85
2002-08-28 08:25:51 51°22.333 3°10.653 13.5 262 19.4 101760 85
2002-08-28 08:25:56 51°22.337 3°10.678 13.8 268 19.4 101760 85
2002-08-28 08:25:59 51°22.341 3°10.693 14.7 266 19.4 101760 85
2002-08-28 08:26:06 51°22.347 3°10.728 14.5 266 19.4 101760 85
2002-08-28 08:26:11 51°22.353 3°10.752 13.2 260 19.4 101760 85
2002-08-28 08:26:17 51°22.358 3°10.783 14.2 264 19.4 101760 85
2002-08-28 08:26:22 51°22.363 3°10.806 13.8 263 19.4 101760 85
2002-08-28 08:26:26 51°22.366 3°10.827 14.1 267 19.5 101770 85
2002-08-28 08:26:31 51°22.372 3°10.851 13.1 266 19.5 101770 85
2002-08-28 08:26:35 51°22.375 3°10.871 14.2 270 19.5 101770 85
2002-08-28 08:26:41 51°22.381 3°10.9 13.5 266 19.5 101770 85
2002-08-28 08:26:46 51°22.384 3°10.925 13.6 264 19.5 101770 85
2002-08-28 08:26:51 51°22.391 3°10.949 13.8 270 19.5 101770 85
2002-08-28 08:26:55 51°22.392 3°10.969 14.3 273 19.5 101770 85
2002-08-28 08:27:01 51°22.398 3°10.999 15 278 19.5 101770 85
2002-08-28 08:27:06 51°22.402 3°11.023 13.1 267 19.5 101760 85
2002-08-28 08:27:11 51°22.406 3°11.048 14 269 19.5 101760 85
2002-08-28 08:27:15 51°22.409 3°11.068 13.2 267 19.5 101760 85
2002-08-28 08:27:21 51°22.412 3°11.099 14.6 275 19.5 101760 85
2002-08-28 08:27:26 51°22.417 3°11.123 13.7 276 19.5 101770 85
2002-08-28 08:27:31 51°22.419 3°11.149 14.4 274 19.5 101770 85
2002-08-28 08:27:37 51°22.425 3°11.179 13.3 269 19.5 101760 85
2002-08-28 08:27:41 51°22.427 3°11.199 14.1 268 19.5 101760 85
2002-08-28 08:27:46 51°22.431 3°11.224 13.6 266 19.5 101770 85
2002-08-28 08:27:51 51°22.436 3°11.249 13.8 269 19.5 101770 85
2002-08-28 08:27:56 51°22.439 3°11.275 13.9 272 19.5 101770 85
2002-08-28 08:28:01 51°22.443 3°11.3 12.9 271 19.5 101770 85
2002-08-28 08:28:06 51°22.446 3°11.325 12.8 274 19.5 101760 85
2002-08-28 08:28:10 51°22.449 3°11.346 13.8 272 19.5 101760 85
2002-08-28 08:28:15 51°22.454 3°11.371 13.6 269 19.4 101770 85
2002-08-28 08:28:21 51°22.458 3°11.402 13.2 268 19.4 101770 85
2002-08-28 08:28:26 51°22.462 3°11.427 14.4 269 19.4 101770 85
2002-08-28 08:28:31 51°22.466 3°11.452 13.6 271 19.4 101770 85
2002-08-28 08:28:36 51°22.47 3°11.477 13.7 273 19.5 101770 85
2002-08-28 08:28:41 51°22.475 3°11.502 12.4 274 19.5 101770 85
2002-08-28 08:28:46 51°22.478 3°11.527 12.6 270 19.5 101760 85
2002-08-28 08:28:51 51°22.482 3°11.551 12.7 270 19.5 101760 85
2002-08-28 08:28:56 51°22.485 3°11.577 12.9 269 19.5 101760 85
2002-08-28 08:29:02 51°22.49 3°11.607 13.6 271 19.5 101760 85
2002-08-28 08:29:06 51°22.493 3°11.628 13.6 273 19.5 101770 85
2002-08-28 08:29:11 51°22.496 3°11.653 12.8 271 19.5 101770 85
2002-08-28 08:29:17 51°22.5 3°11.683 12.9 273 19.5 101760 85
2002-08-28 08:29:21 51°22.503 3°11.703 14.5 269 19.5 101760 85
2002-08-28 08:29:26 51°22.505 3°11.729 13.5 266 19.5 101760 85
2002-08-28 08:29:30 51°22.509 3°11.749 13.8 267 19.5 101760 85
2002-08-28 08:29:34 51°22.511 3°11.77 12.8 268 19.5 101770 85
2002-08-28 08:29:42 51°22.516 3°11.81 13.2 272 19.5 101770 85
2002-08-28 08:29:46 51°22.518 3°11.83 13 274 19.5 101770 85
2002-08-28 08:29:51 51°22.521 3°11.856 14.3 273 19.5 101770 85
2002-08-28 08:29:56 51°22.525 3°11.881 13.7 274 19.5 101770 85
2002-08-28 08:30:01 51°22.527 3°11.907 14.8 275 19.5 101770 85
2002-08-28 08:30:06 51°22.53 3°11.932 13.6 273 19.5 101770 85
2002-08-28 08:30:11 51°22.533 3°11.958 15.2 277 19.5 101770 85
2002-08-28 08:30:16 51°22.537 3°11.983 12.9 272 19.5 101770 85
2002-08-28 08:30:21 51°22.539 3°12.009 14.7 274 19.5 101770 85
2002-08-28 08:30:27 51°22.544 3°12.039 14.8 274 19.4 101770 84
2002-08-28 08:30:31 51°22.546 3°12.06 13.7 271 19.4 101770 84